FW2284 Weather Reports


Display with metric or nautical units.
time (UTC)temp
F
wind
direction
speed
MPH
gust
MPH
rain 1hr
in
rain 24hr
in
rain mn
in
humidity
%
barometer
mb
20260903133044 83 193 2.0 6.0 0.00 0.00 0.00 70 1014.6
20260903131541 82 220 2.0 5.0 0.00 0.00 0.00 70 1014.6
20260903130040 81 194 1.0 3.0 0.00 0.00 0.00 74 1014.5
20260903124539 79 198 1.0 5.0 0.00 0.00 0.00 74 1014.6
20260903123034 79 196 0.0 3.0 0.00 0.00 0.00 75 1014.5
20260903121501 78 165 1.0 3.0 0.00 0.00 0.00 77 1014.5
20260903120106 77 220 1.0 4.0 0.00 0.00 0.00 78 1014.3
20260903114600 77 201 1.0 2.0 0.00 0.00 0.00 78 1014.2
20260903113057 76 139 1.0 4.0 0.00 0.00 0.00 78 1014.1
20260903111558 77 174 1.0 2.0 0.00 0.00 0.00 78 1014.1
20260903110057 77 188 2.0 3.0 0.00 0.00 0.00 78 1013.9
20260903104601 77 202 0.0 4.0 0.00 0.00 0.00 77 1013.8
20260903103051 77 168 1.0 4.0 0.00 0.00 0.00 78 1013.8
20260903101549 78 193 0.0 3.0 0.00 0.00 0.00 76 1013.9
20260903100048 78 155 1.0 3.0 0.00 0.00 0.00 76 1014.0
20260903094557 78 153 1.0 3.0 0.00 0.00 0.00 76 1013.9
20260903093054 78 212 1.0 4.0 0.00 0.00 0.00 75 1013.9
20260903091544 79 191 1.0 3.0 0.00 0.00 0.00 75 1013.9
20260903090042 79 150 2.0 5.0 0.00 0.00 0.00 74 1013.8
20260903084540 79 198 1.0 4.0 0.00 0.00 0.00 73 1013.8
20260903083037 80 155 2.0 5.0 0.00 0.00 0.00 73 1013.8
20260903081542 80 141 2.0 5.0 0.00 0.00 0.00 73 1013.7
20260903080036 80 121 2.0 5.0 0.00 0.00 0.00 73 1013.6
20260903074535 80 184 2.0 5.0 0.00 0.00 0.00 73 1013.6
20260903073034 81 157 1.0 3.0 0.00 0.00 0.00 72 1013.6
20260903071532 81 160 1.0 5.0 0.00 0.00 0.00 72 1013.6
20260903070030 81 187 2.0 7.0 0.00 0.00 0.00 71 1013.8
20260903064529 81 203 2.0 6.0 0.00 0.00 0.00 72 1013.8
20260903063028 81 194 2.0 5.0 0.00 0.00 0.00 72 1013.8
20260903061527 81 136 1.0 4.0 0.00 0.00 0.00 72 1013.8
20260903060026 81 195 1.0 4.0 0.00 0.00 0.00 72 1013.7
20260903054524 81 157 1.0 4.0 0.00 0.00 0.00 72 1013.8
20260903053022 82 139 2.0 4.0 0.00 0.00 0.00 71 1013.7
20260903051522 82 169 1.0 4.0 0.00 0.00 0.00 71 1013.7
20260903050018 82 142 2.0 4.0 0.00 0.00 0.00 71 1013.6
20260903044517 82 153 1.0 4.0 0.00 0.00 0.00 71 1013.6
20260903043020 82 134 1.0 4.0 0.00 0.00 0.00 71 1013.6
20260903041518 83 141 1.0 3.0 0.00 0.00 0.00 70 1013.6
20260903040016 83 84 1.0 3.0 0.00 0.00 0.00 70 1013.7
20260903034516 83 137 0.0 2.0 0.00 0.00 0.00 70 1013.8
20260903033015 83 127 0.0 2.0 0.00 0.00 0.00 70 1013.8
20260903031527 83 127 1.0 5.0 0.00 0.00 0.00 69 1013.8
20260903030014 84 146 1.0 3.0 0.00 0.00 0.00 68 1013.7
20260903024514 84 206 2.0 5.0 0.00 0.00 0.00 67 1013.6
20260903023018 84 139 2.0 4.0 0.00 0.00 0.00 66 1013.5
20260903021533 85 157 1.0 3.0 0.00 0.00 0.00 66 1013.4
20260903020013 85 153 1.0 4.0 0.00 0.00 0.00 65 1013.3
20260903014511 85 193 1.0 4.0 0.00 0.00 0.00 65 1013.1
20260903013013 83 153 0.0 3.0 0.00 0.00 0.00 68 1013.0
20260903011510 83 198 0.0 0.0 0.00 0.00 0.00 68 1012.7
20260903010009 85 198 0.0 0.0 0.00 0.00 0.00 65 1012.6
20260903004507 87 198 0.0 0.0 0.00 0.00 0.00 60 1012.6
20260903003008 90 198 0.0 0.0 0.00 0.00 0.00 54 1012.6
20260903001507 93 198 0.0 0.0 0.00 0.00 0.00 49 1012.6
20260903000006 96 198 0.0 0.0 0.00 0.00 0.00 44 1012.6
20260902234505 96 198 0.0 4.0 0.00 0.00 0.00 44 1012.7
20260902233013 97 208 1.0 3.0 0.00 0.00 0.00 43 1012.9
20260902231506 97 202 2.0 5.0 0.00 0.00 0.00 41 1012.8
20260902230003 97 217 2.0 6.0 0.00 0.00 0.00 41 1012.7
20260902224505 97 235 2.0 5.0 0.00 0.00 0.00 44 1012.8
20260902223004 97 212 1.0 8.0 0.00 0.00 0.00 45 1012.8
20260902221501 97 155 5.0 8.0 0.00 0.00 0.00 42 1012.9
20260902220100 98 221 3.0 7.0 0.00 0.00 0.00 43 1012.8
20260902214558 99 169 3.0 8.0 0.00 0.00 0.00 45 1012.9
20260902213058 98 210 5.0 9.0 0.00 0.00 0.00 45 1013.0
20260902211555 98 296 2.0 6.0 0.00 0.00 0.00 42 1013.0
20260902210053 97 129 2.0 8.0 0.00 0.00 0.00 46 1013.2
20260902204551 98 266 4.0 8.0 0.00 0.00 0.00 46 1013.3
20260902203053 97 143 6.0 9.0 0.00 0.00 0.00 45 1013.5
20260902201548 96 229 3.0 8.0 0.00 0.00 0.00 46 1013.7
20260902200045 98 156 5.0 10.0 0.00 0.00 0.00 47 1013.9
20260902194542 98 229 2.0 8.0 0.00 0.00 0.00 47 1013.9
20260902193053 97 197 3.0 9.0 0.00 0.00 0.00 47 1014.1
20260902191540 97 146 0.0 10.0 0.00 0.00 0.00 48 1014.2
20260902190036 97 278 2.0 9.0 0.00 0.00 0.00 46 1014.3
20260902184532 97 223 4.0 8.0 0.00 0.00 0.00 44 1014.6
20260902183031 96 311 4.0 8.0 0.00 0.00 0.00 47 1014.5
20260902181530 96 285 5.0 10.0 0.00 0.00 0.00 46 1014.7
20260902180028 96 251 5.0 9.0 0.00 0.00 0.00 47 1014.9
20260902174628 95 231 4.0 9.0 0.00 0.00 0.00 51 1015.0
20260902173023 95 257 4.0 9.0 0.00 0.00 0.00 51 1015.2
20260902171522 94 271 3.0 11.0 0.00 0.00 0.00 52 1015.5
20260902170020 93 293 4.0 11.0 0.00 0.00 0.00 51 1015.7
20260902164519 94 99 4.0 10.0 0.00 0.00 0.00 52 1015.7
20260902163020 93 212 5.0 13.0 0.00 0.00 0.00 53 1015.8
20260902161514 92 241 3.0 9.0 0.00 0.00 0.00 56 1015.9
20260902160018 91 236 3.0 10.0 0.00 0.00 0.00 57 1015.9
20260902154512 91 273 5.0 10.0 0.00 0.00 0.00 56 1016.2
20260902153009 91 265 4.0 7.0 0.00 0.00 0.00 57 1016.0
20260902151507 90 308 3.0 5.0 0.00 0.00 0.00 57 1015.8
20260902150105 89 200 4.0 11.0 0.00 0.00 0.00 59 1015.8
20260902144602 89 264 3.0 6.0 0.00 0.00 0.00 60 1015.7
20260902143058 87 226 4.0 8.0 0.00 0.00 0.00 61 1015.9
20260902141554 86 202 3.0 6.0 0.00 0.00 0.00 62 1015.9
20260902140053 85 152 3.0 9.0 0.00 0.00 0.00 65 1016.0
20260902134548 84 270 2.0 7.0 0.00 0.00 0.00 67 1016.2